[[{"header":{"parameterUnit":"m.s-1","parameterCategory":2,"la1":30.2991,"la2":30.254,"lo1":-89.0895,"lo2":-89.0444,"dy":0.0017,"dx":0.0017,"nx":28,"ny":28,"refTime":"2023-09-21T09:00:00:Z","depth":"0","parameterNumber":2,"parameterNumberName":"U-component_of_CURRENTS"},"data":[0,0,0,0,0,0,0,0,0,0,0,0,0,0,0,0,0,0,0,0,0,0,0,0,0,0,0,0,0,0,0,0,0,0,0,0,0,0,0,0,0,0,0,0,0,0,0,0,0,0,0,0,0,0,0,0,0,0,-0.2847,-0.2847,0,-0.2873,-0.2873,-0.2873,-0.2811,-0.281,-0.2808,-0.2807,-0.2738,-0.2738,-0.2738,0,0,0,0,0,0,0,0,0,0,0,0,0,-0.2737,-0.2739,-0.2847,-0.2848,-0.2848,-0.2873,-0.2873,-0.2873,-0.2811,-0.281,-0.2808,-0.2806,-0.2739,-0.2738,-0.2738,0,0,0,0,0,0,0,0,0,0,0,0,0,-0.2772,-0.274,-0.2847,-0.2824,-0.2822,-0.2873,-0.2873,-0.2873,-0.2812,-0.281,-0.2807,-0.2805,-0.2739,-0.2738,-0.2738,-0.2781,0,0,-0.2736,-0.2736,0,0,0,0,0,0,0,0,-0.277,-0.2776,-0.2826,-0.2826,-0.2824,-0.284,-0.281,-0.2839,-0.2812,-0.2811,-0.2807,-0.2804,-0.2768,-0.2765,-0.277,-0.2778,-0.2775,-0.2736,-0.2736,-0.2735,-0.2735,0,0,0,0,0,0,0,-0.2768,-0.2774,-0.2853,-0.2828,-0.2826,-0.2811,-0.2812,-0.2815,-0.2797,-0.2811,-0.2808,-0.2819,-0.2766,-0.2771,-0.2768,-0.2774,-0.2736,-0.2735,-0.2735,-0.2735,-0.2769,-0.277,0,0,0,0,0,0,-0.2777,-0.2773,-0.2852,-0.2854,-0.2796,-0.2815,-0.2817,-0.2834,-0.2799,-0.2794,-0.2821,-0.2816,-0.2773,-0.2769,-0.2765,-0.2804,-0.2735,-0.2735,-0.2735,-0.2768,-0.277,-0.2771,0,0,0,0,0,0,-0.2775,-0.2784,-0.2851,-0.2816,-0.2824,-0.282,-0.2839,-0.2836,-0.2851,-0.2808,-0.2799,-0.284,-0.2771,-0.2766,-0.2769,-0.28,-0.2735,-0.2734,-0.2767,-0.2769,-0.277,-0.2887,0,0,0,0,0,0,-0.2772,-0.2783,-0.2813,-0.2818,-0.2827,-0.2908,-0.2842,-0.2838,-0.2863,-0.2856,-0.2823,-0.2813,-0.2769,-0.2771,-0.2769,-0.2798,-0.2734,-0.2765,-0.2767,-0.277,-0.2881,-0.2892,-0.2902,0,0,0,0,0,-0.2768,-0.2849,-0.2815,-0.2825,-0.2864,-0.2911,-0.2916,-0.2899,-0.2866,-0.2898,-0.2853,-0.2815,-0.2783,-0.2772,-0.277,-0.28,-0.2764,-0.2767,-0.2769,-0.2877,-0.289,-0.2902,0,0,0,0,0,0,-0.2843,-0.285,-0.2813,-0.2896,-0.2902,-0.2903,-0.2945,-0.2922,-0.2916,-0.2897,-0.2841,-0.2831,-0.2845,-0.281,-0.2799,-0.2814,-0.2764,-0.2767,-0.2847,-0.2859,-0.2869,-0.285,-0.2733,0,0,0,0,0,-0.2865,-0.2901,-0.2903,-0.2961,-0.2973,-0.2953,-0.2974,-0.2953,-0.2945,-0.294,-0.2906,-0.2869,-0.2858,-0.2848,-0.2831,-0.2852,-0.2777,-0.2865,-0.2875,-0.2884,-0.2866,-0.2757,-0.2755,-0.278,-0.278,-0.278,0,0,-0.2903,-0.2915,-0.2933,-0.2975,-0.2973,-0.3003,-0.296,-0.2999,-0.3004,-0.2935,-0.2938,-0.2913,-0.2873,-0.2884,-0.2886,-0.2857,-0.285,-0.2887,-0.2896,-0.2871,-0.276,-0.2757,-0.2754,-0.2782,-0.2782,-0.2781,0,0,-0.299,-0.3011,-0.3054,-0.3067,-0.3077,-0.3069,-0.3085,-0.3081,-0.3065,-0.3076,-0.3016,-0.3003,-0.2995,-0.2957,-0.2942,-0.3002,-0.2912,-0.3006,-0.3038,-0.2935,-0.2931,-0.2927,-0.2878,-0.2868,-0.3004,-0.3005,-0.3005,0,-0.3012,-0.3079,-0.308,-0.312,-0.3123,-0.3101,-0.3128,-0.3135,-0.3122,-0.3091,-0.3089,-0.3029,-0.3025,-0.2994,-0.3028,-0.3025,-0.2958,-0.3,-0.2946,-0.294,-0.2933,-0.2883,-0.287,-0.3011,-0.301,-0.3009,-0.3009,0,-0.3117,-0.3161,-0.3203,-0.3214,-0.3226,-0.3265,-0.3245,-0.3251,-0.3225,-0.3189,-0.3157,-0.3133,-0.3082,-0.31,-0.3098,-0.3054,-0.3024,-0.2977,-0.2913,-0.2937,-0.2884,-0.2869,-0.3019,-0.3017,-0.3015,-0.3014,0,0,-0.314,-0.3245,-0.3247,-0.3247,-0.3268,-0.3275,-0.3298,-0.328,-0.3252,-0.3242,-0.3181,-0.3206,-0.3159,-0.3138,-0.3114,-0.3051,-0.3007,-0.3011,-0.3003,-0.296,-0.2802,-0.2774,-0.2754,-0.2934,-0.2931,-0.2929,-0.2802,0,-0.3189,-0.3287,-0.3311,-0.335,-0.3381,-0.3352,-0.3356,-0.3324,-0.3296,-0.3243,-0.3192,-0.3141,-0.3182,-0.3148,-0.3105,-0.3009,-0.2962,-0.3047,-0.2785,-0.2779,-0.2745,-0.2733,-0.264,-0.2516,-0.2787,-0.2784,-0.2782,0,-0.3248,-0.33,-0.3377,-0.3375,-0.3376,-0.3388,-0.3333,-0.333,-0.3264,-0.3233,-0.3177,-0.3117,-0.3059,-0.3068,-0.2927,-0.2972,-0.2913,-0.2842,-0.2834,-0.2742,-0.2718,-0.2524,-0.2477,-0.2456,-0.2757,-0.2759,-0.2761,0,-0.3245,-0.3313,-0.3371,-0.3384,-0.3408,-0.3393,-0.337,-0.3316,-0.3255,-0.32,-0.3131,-0.3063,-0.2983,-0.2895,-0.2831,-0.285,-0.2645,-0.2639,-0.2558,-0.2557,-0.2392,-0.2381,-0.2278,-0.2518,-0.2519,-0.2519,-0.2519,0,-0.3294,-0.331,-0.3376,-0.3414,-0.3369,-0.3381,-0.3316,-0.3292,-0.3215,-0.3099,-0.3109,-0.3002,-0.2924,-0.2812,-0.2776,-0.2629,-0.2603,-0.2548,-0.2502,-0.244,-0.2435,-0.2338,-0.2373,-0.2514,-0.2515,-0.2516,-0.2517,0,-0.3277,-0.3361,-0.3377,-0.3408,-0.3386,-0.3336,-0.3238,-0.3174,-0.3155,-0.3001,-0.2963,-0.2898,-0.2775,-0.2714,-0.2554,-0.2528,-0.2361,-0.2368,-0.2342,-0.2295,-0.2202,-0.2248,-0.2075,-0.2019,-0.2232,-0.223,-0.2228,0,-0.3275,-0.3319,-0.3332,-0.3279,-0.3284,-0.3219,-0.3143,-0.3122,-0.3029,-0.2917,-0.2805,-0.27,-0.2592,-0.2421,-0.2341,-0.2242,-0.2261,-0.2114,-0.2138,-0.2169,-0.2185,-0.222,-0.2188,-0.1986,-0.1983,-0.198,-0.1978,0,-0.3206,-0.3231,-0.3234,-0.3148,-0.3074,-0.298,-0.2879,-0.2807,-0.275,-0.2673,-0.253,-0.2457,-0.2334,-0.2198,-0.2124,-0.2059,-0.2069,-0.2054,-0.2045,-0.195,-0.2012,-0.1945,-0.2158,-0.1954,-0.1956,-0.1958,-0.1959,-0.196,-0.3066,-0.3028,-0.3025,-0.2902,-0.282,-0.2683,-0.2553,-0.2499,-0.2367,-0.2198,-0.225,-0.214,-0.2094,-0.1974,-0.1916,-0.1804,-0.1869,-0.1754,-0.1801,-0.1829,-0.1787,-0.1991,-0.1765,-0.1767,-0.1768,-0.1769,-0.177,0,-0.2831,-0.2815,-0.2736,-0.2584,-0.2414,-0.2453,-0.2298,-0.217,-0.2002,-0.198,-0.1887,-0.1841,-0.1751,-0.1739,-0.1658,-0.158,-0.1543,-0.1549,-0.156,-0.1532,-0.1641,-0.1644,-0.143,-0.143,-0.143,-0.143,-0.143,-0.143,-0.27,-0.2572,-0.255,-0.2198,-0.2088,-0.1828,-0.1721,-0.1631,-0.1582,-0.1483,-0.148,-0.1523,-0.1552,-0.167,-0.157,-0.1489,-0.1457,-0.1408,-0.1442,-0.1531,-0.1555,-0.1577,-0.1584,-0.1361,-0.1362,-0.1256,-0.1256,-0.1255]},{"header":{"parameterUnit":"m.s-1","parameterCategory":2,"la1":30.2991,"la2":30.254,"lo1":-89.0895,"lo2":-89.0444,"dy":0.0017,"dx":0.0017,"nx":28,"ny":28,"refTime":"2023-09-21T09:00:00:Z","depth":"0","parameterNumber":3,"parameterNumberName":"V-component_of_CURRENTS"},"data":[0,0,0,0,0,0,0,0,0,0,0,0,0,0,0,0,0,0,0,0,0,0,0,0,0,0,0,0,0,0,0,0,0,0,0,0,0,0,0,0,0,0,0,0,0,0,0,0,0,0,0,0,0,0,0,0,0,0,-0.0472,-0.047,0,-0.0341,-0.034,-0.0338,-0.0263,-0.0263,-0.0263,-0.0263,-0.0087,-0.0082,-0.0078,0,0,0,0,0,0,0,0,0,0,0,0,0,-0.0589,-0.0588,-0.0472,-0.047,-0.0469,-0.0342,-0.034,-0.0338,-0.0263,-0.0263,-0.0263,-0.0263,-0.0088,-0.0083,-0.0077,0,0,0,0,0,0,0,0,0,0,0,0,0,-0.0506,-0.0587,-0.0472,-0.0417,-0.0411,-0.0342,-0.034,-0.0337,-0.0263,-0.0263,-0.0263,-0.0263,-0.009,-0.0083,-0.0076,-0.0039,0,0,-0.0056,-0.0053,0,0,0,0,0,0,0,0,-0.0511,-0.0501,-0.0427,-0.0421,-0.0414,-0.032,-0.0316,-0.0236,-0.0263,-0.0318,-0.0263,-0.0263,-0.0161,-0.0148,-0.0123,-0.0031,-0.0023,-0.0055,-0.0051,-0.0048,-0.0046,0,0,0,0,0,0,0,-0.0516,-0.0506,-0.0419,-0.0425,-0.0417,-0.0376,-0.0365,-0.0301,-0.0241,-0.0313,-0.0308,-0.0296,-0.0157,-0.013,-0.0118,-0.0021,-0.0055,-0.0049,-0.0045,-0.0042,0.0116,0.0117,0,0,0,0,0,0,-0.0539,-0.0512,-0.0423,-0.0415,-0.0464,-0.0375,-0.0362,-0.0349,-0.0242,-0.0226,-0.0296,-0.0293,-0.0142,-0.0127,-0.0112,-0.0058,-0.0048,-0.0042,-0.0038,0.0116,0.0116,0.0117,0,0,0,0,0,0,-0.0542,-0.0532,-0.0428,-0.0461,-0.0446,-0.0374,-0.036,-0.0347,-0.032,-0.023,-0.0213,-0.0283,-0.0141,-0.0122,-0.0049,-0.0051,-0.0038,-0.0032,0.0116,0.0116,0.0117,0.0048,0,0,0,0,0,0,-0.0546,-0.0534,-0.0539,-0.0463,-0.0445,-0.0389,-0.0359,-0.0344,-0.0313,-0.0308,-0.0213,-0.0196,-0.0139,-0.0059,-0.0042,-0.0041,-0.0027,0.0116,0.0116,0.0116,0.0051,0.0046,0.0043,0,0,0,0,0,-0.055,-0.0561,-0.054,-0.053,-0.0452,-0.0389,-0.0376,-0.0323,-0.0313,-0.0299,-0.0233,-0.0199,-0.0046,-0.0053,-0.0033,-0.003,0.0116,0.0116,0.0116,0.0052,0.0047,0.0043,0,0,0,0,0,0,-0.0621,-0.0552,-0.0528,-0.0519,-0.0459,-0.0377,-0.0367,-0.033,-0.0268,-0.0265,-0.0185,-0.0163,-0.0103,-0.0057,-0.0066,0.0015,0.0036,0.004,-0.002,-0.0024,-0.0028,-0.0057,-0.0021,0,0,0,0,0,-0.0638,-0.0623,-0.0548,-0.054,-0.0517,-0.0444,-0.0417,-0.0375,-0.0309,-0.0282,-0.0215,-0.0148,-0.0086,-0.0049,0.0015,0.0066,0.0103,0.0077,0.0073,0.007,0.006,0.0113,0.0113,0.0117,0.0117,0.0117,0,0,-0.0664,-0.0625,-0.0617,-0.0553,-0.0508,-0.0474,-0.0427,-0.0386,-0.0356,-0.0272,-0.0218,-0.0154,-0.0075,-0.0017,0.0012,0.0022,0.0089,0.007,0.0066,0.0058,0.0113,0.0113,0.0112,0.0118,0.0118,0.0118,0,0,-0.0704,-0.0673,-0.0671,-0.0622,-0.0556,-0.0505,-0.0498,-0.0413,-0.0377,-0.0311,-0.0251,-0.0191,-0.0091,-0.0037,0.0003,0.0014,0.0066,0.0032,-0.0007,0.0044,0.0044,0.0044,0.009,0.0095,0.0029,0.0029,0.0029,0,-0.0739,-0.0724,-0.0661,-0.0639,-0.061,-0.0526,-0.0512,-0.0457,-0.0358,-0.0334,-0.0305,-0.0172,-0.0104,-0.0041,-0.0035,0.0004,0.0041,0.0003,0.0038,0.0039,0.004,0.0087,0.0094,0.0026,0.0026,0.0026,0.0027,0,-0.077,-0.0752,-0.0748,-0.0692,-0.065,-0.0624,-0.0539,-0.0497,-0.0448,-0.0391,-0.0319,-0.0221,-0.0149,-0.0117,-0.0067,-0.0025,0.0,0.0026,0.0044,0.0035,0.0086,0.0094,0.0021,0.0022,0.0023,0.0024,0,0,-0.0857,-0.0787,-0.0784,-0.0769,-0.0678,-0.0648,-0.06,-0.0536,-0.0514,-0.0422,-0.0387,-0.0282,-0.0237,-0.0191,-0.0121,-0.007,-0.0023,-0.0024,-0.002,0.0011,0.009,0.0141,0.0155,0.001,0.0011,0.0012,0.0121,0,-0.0901,-0.0894,-0.0835,-0.0818,-0.0805,-0.0714,-0.0675,-0.0603,-0.0534,-0.0475,-0.0382,-0.0321,-0.0262,-0.0228,-0.0169,-0.0048,-0.0005,-0.0055,0.0103,0.0108,0.0146,0.0164,0.0201,0.0304,0.0129,0.0131,0.0132,0,-0.0957,-0.0937,-0.0946,-0.0883,-0.087,-0.0846,-0.078,-0.073,-0.0625,-0.0568,-0.0494,-0.0413,-0.0316,-0.0272,-0.0099,-0.0131,-0.0039,0.0048,0.0055,0.0128,0.0173,0.0287,0.0325,0.0462,0.0144,0.0143,0.0142,0,-0.1069,-0.1016,-0.1035,-0.1013,-0.0929,-0.0919,-0.0873,-0.0775,-0.0733,-0.0635,-0.0592,-0.0472,-0.0392,-0.027,-0.0086,-0.0093,0.0108,0.0121,0.0246,0.0251,0.0327,0.0336,0.0507,0.0216,0.0216,0.0215,0.0215,0,-0.1158,-0.1161,-0.1093,-0.1104,-0.1103,-0.1013,-0.1,-0.0931,-0.0834,-0.0773,-0.066,-0.0577,-0.0386,-0.0239,-0.0102,0.011,0.0095,0.0243,0.0286,0.0305,0.0311,0.0469,0.0522,0.0219,0.0218,0.0218,0.0217,0,-0.1287,-0.1245,-0.1246,-0.1181,-0.1162,-0.1164,-0.1077,-0.1054,-0.0955,-0.0868,-0.0841,-0.0644,-0.0439,-0.025,-0.0015,0.0106,0.0383,0.0353,0.0361,0.0403,0.0635,0.0682,0.0881,0.0973,0.0504,0.0506,0.0508,0,-0.1354,-0.1377,-0.1326,-0.1315,-0.1291,-0.1266,-0.124,-0.1135,-0.1084,-0.0891,-0.0847,-0.0641,-0.0456,-0.0102,0.0143,0.0388,0.0485,0.0549,0.0539,0.0662,0.0746,0.0766,0.083,0.0615,0.0617,0.0619,0.0621,0,-0.1465,-0.145,-0.1444,-0.1424,-0.1406,-0.1373,-0.1316,-0.1286,-0.1132,-0.1032,-0.0829,-0.0674,-0.0312,0.0022,0.0331,0.0468,0.0661,0.0597,0.0733,0.0854,0.0881,0.0985,0.0521,0.0638,0.0636,0.0635,0.0634,0.0633,-0.1527,-0.1545,-0.1524,-0.1499,-0.1478,-0.1434,-0.1392,-0.1297,-0.119,-0.0959,-0.082,-0.0518,-0.0079,0.0383,0.0549,0.0883,0.0831,0.0966,0.1014,0.1024,0.1111,0.0681,0.0839,0.0838,0.0838,0.0837,0.0837,0,-0.1574,-0.1581,-0.1581,-0.1528,-0.1503,-0.1475,-0.1396,-0.1306,-0.1148,-0.0916,-0.0691,-0.0156,0.0277,0.0663,0.1122,0.1293,0.1324,0.1361,0.1402,0.145,0.1086,0.109,0.13,0.13,0.13,0.13,0.1299,0.1299,-0.1591,-0.1609,-0.1599,-0.1541,-0.1501,-0.1424,-0.1367,-0.1225,-0.1038,-0.0633,-0.0293,-0.0031,0.0487,0.1226,0.1645,0.1668,0.182,0.1787,0.1877,0.1624,0.159,0.1558,0.1575,0.1884,0.1884,0.2225,0.2229,0.2231]}],[{"header":{"parameterUnit":"m.s-1","parameterCategory":2,"la1":30.2991,"la2":30.254,"lo1":-89.0895,"lo2":-89.0444,"dy":0.0017,"dx":0.0017,"nx":28,"ny":28,"refTime":"2023-09-21T09:00:00:Z","depth":"2","parameterNumber":2,"parameterNumberName":"U-component_of_CURRENTS"},"data":[0,0,0,0,0,0,0,0,0,0,0,0,0,0,0,0,0,0,0,0,0,0,0,0,0,0,0,0,0,0,0,0,0,0,0,0,0,0,0,0,0,0,0,0,0,0,0,0,0,0,0,0,0,0,0,0,0,0,-0.2043,-0.2045,0,-0.212,-0.2121,-0.2121,-0.2092,-0.2091,-0.209,-0.2089,-0.2081,-0.2081,-0.2082,0,0,0,0,0,0,0,0,0,0,0,0,0,-0.1864,-0.1867,-0.2043,-0.2045,-0.2047,-0.212,-0.2121,-0.2121,-0.2092,-0.2091,-0.209,-0.2089,-0.2081,-0.2081,-0.2082,0,0,0,0,0,0,0,0,0,0,0,0,0,-0.1933,-0.1867,-0.2043,-0.2048,-0.205,-0.212,-0.2121,-0.2121,-0.2092,-0.2091,-0.209,-0.2089,-0.208,-0.2081,-0.2082,-0.2114,0,0,-0.2085,-0.2085,0,0,0,0,0,0,0,0,-0.1929,-0.1938,-0.2046,-0.2048,-0.2051,-0.2104,-0.2055,-0.2118,-0.2093,-0.2066,-0.2089,-0.2088,-0.2088,-0.2088,-0.2093,-0.2114,-0.2114,-0.2085,-0.2086,-0.2086,-0.2086,0,0,0,0,0,0,0,-0.1924,-0.1935,-0.2064,-0.2048,-0.2051,-0.2046,-0.2053,-0.2066,-0.2075,-0.2069,-0.2069,-0.2093,-0.2087,-0.2092,-0.2093,-0.2113,-0.2085,-0.2086,-0.2086,-0.2087,-0.2182,-0.2184,0,0,0,0,0,0,-0.1936,-0.1931,-0.2062,-0.2067,-0.1996,-0.2051,-0.2058,-0.208,-0.2076,-0.2078,-0.2094,-0.2092,-0.2091,-0.2092,-0.2092,-0.2147,-0.2086,-0.2087,-0.2087,-0.218,-0.2183,-0.2185,0,0,0,0,0,0,-0.1932,-0.1947,-0.2059,-0.2008,-0.2023,-0.2056,-0.208,-0.2083,-0.2098,-0.2099,-0.2096,-0.211,-0.209,-0.2091,-0.2114,-0.2146,-0.2087,-0.2088,-0.2178,-0.2181,-0.2184,-0.2246,0,0,0,0,0,0,-0.1926,-0.1945,-0.1952,-0.2009,-0.2027,-0.2097,-0.2083,-0.2085,-0.212,-0.2117,-0.2112,-0.2109,-0.2089,-0.2113,-0.2115,-0.2146,-0.2089,-0.2176,-0.218,-0.2183,-0.2241,-0.225,-0.2258,0,0,0,0,0,-0.1919,-0.1957,-0.1952,-0.1968,-0.204,-0.2099,-0.2106,-0.2118,-0.2122,-0.2127,-0.2133,-0.2109,-0.2139,-0.2116,-0.2118,-0.2149,-0.2174,-0.2178,-0.2183,-0.2237,-0.2249,-0.2258,0,0,0,0,0,0,-0.191,-0.1961,-0.1956,-0.2012,-0.2045,-0.2097,-0.2119,-0.2133,-0.2145,-0.2146,-0.2134,-0.2132,-0.2158,-0.2156,-0.2131,-0.219,-0.2154,-0.2159,-0.2194,-0.2205,-0.2214,-0.2201,-0.2089,0,0,0,0,0,-0.1907,-0.1938,-0.1982,-0.2032,-0.2044,-0.2081,-0.2106,-0.2121,-0.2152,-0.2155,-0.2157,-0.2167,-0.218,-0.2193,-0.2193,-0.2236,-0.2196,-0.226,-0.2268,-0.2275,-0.2268,-0.2223,-0.2226,-0.22,-0.22,-0.22,0,0,-0.1927,-0.1959,-0.198,-0.203,-0.2055,-0.2091,-0.209,-0.2144,-0.2175,-0.2155,-0.2188,-0.2189,-0.2196,-0.2228,-0.2243,-0.2232,-0.2268,-0.2281,-0.2287,-0.2276,-0.2228,-0.223,-0.2232,-0.2203,-0.2202,-0.2202,0,0,-0.1973,-0.1999,-0.2017,-0.2042,-0.2086,-0.2118,-0.2138,-0.2185,-0.2192,-0.2236,-0.2228,-0.2247,-0.2277,-0.2281,-0.2292,-0.2355,-0.2305,-0.237,-0.2415,-0.2373,-0.2373,-0.2373,-0.2344,-0.234,-0.2387,-0.2387,-0.2388,0,-0.1976,-0.2019,-0.2037,-0.2058,-0.2089,-0.2134,-0.2163,-0.2196,-0.2247,-0.2259,-0.225,-0.2292,-0.2298,-0.2338,-0.2367,-0.2371,-0.2342,-0.2373,-0.238,-0.2379,-0.2377,-0.2347,-0.2343,-0.2391,-0.2391,-0.239,-0.239,0,-0.2008,-0.2052,-0.2078,-0.211,-0.2142,-0.2192,-0.2233,-0.2261,-0.229,-0.232,-0.235,-0.2355,-0.2374,-0.2397,-0.2407,-0.2425,-0.2406,-0.2381,-0.2344,-0.2383,-0.235,-0.2344,-0.2396,-0.2395,-0.2394,-0.2393,0,0,-0.2008,-0.2074,-0.2088,-0.2097,-0.217,-0.2199,-0.226,-0.2312,-0.2346,-0.2379,-0.2396,-0.2448,-0.2446,-0.2457,-0.2466,-0.2456,-0.2441,-0.2433,-0.2429,-0.2388,-0.2354,-0.2299,-0.2286,-0.2412,-0.2411,-0.2411,-0.234,0,-0.2021,-0.206,-0.21,-0.2164,-0.2188,-0.2236,-0.2285,-0.234,-0.2386,-0.2414,-0.2428,-0.2454,-0.2474,-0.2481,-0.2476,-0.2439,-0.2426,-0.2463,-0.2335,-0.2331,-0.2264,-0.2277,-0.2124,-0.2043,-0.2333,-0.2332,-0.2331,0,-0.2025,-0.2059,-0.2096,-0.2168,-0.2178,-0.2225,-0.2289,-0.2337,-0.2404,-0.2429,-0.2464,-0.2473,-0.2489,-0.2474,-0.2431,-0.2454,-0.2413,-0.2382,-0.2378,-0.2294,-0.2264,-0.2049,-0.202,-0.2321,-0.2322,-0.2322,-0.2323,0,-0.1989,-0.2063,-0.2086,-0.2108,-0.2188,-0.221,-0.2262,-0.2344,-0.238,-0.2437,-0.2454,-0.2475,-0.2458,-0.242,-0.239,-0.2402,-0.231,-0.2305,-0.2217,-0.2213,-0.2039,-0.2021,-0.2248,-0.2248,-0.2248,-0.2249,-0.2249,0,-0.1951,-0.1984,-0.2068,-0.2084,-0.2116,-0.218,-0.2239,-0.2286,-0.236,-0.2387,-0.2453,-0.245,-0.2439,-0.24,-0.2371,-0.2276,-0.2288,-0.2216,-0.2184,-0.2062,-0.2047,-0.2251,-0.2252,-0.2246,-0.2246,-0.2247,-0.2247,0,-0.1858,-0.1916,-0.1973,-0.2072,-0.2099,-0.2111,-0.2219,-0.225,-0.2338,-0.236,-0.2369,-0.2414,-0.2362,-0.2348,-0.2269,-0.2232,-0.216,-0.2121,-0.1993,-0.1948,-0.2099,-0.2105,-0.2008,-0.2005,-0.2003,-0.2001,-0.1999,0,-0.1848,-0.1886,-0.1959,-0.1975,-0.2009,-0.2066,-0.2104,-0.2216,-0.2254,-0.2324,-0.2302,-0.2295,-0.2253,-0.2154,-0.2081,-0.1998,-0.2076,-0.1823,-0.1817,-0.2092,-0.2071,-0.2081,-0.2089,-0.1618,-0.1614,-0.161,-0.1607,0,-0.1871,-0.1878,-0.1834,-0.188,-0.1915,-0.1956,-0.2025,-0.2056,-0.2153,-0.2174,-0.2158,-0.2132,-0.2056,-0.1901,-0.1829,-0.1768,-0.183,-0.1744,-0.2023,-0.1717,-0.1722,-0.1703,-0.1725,-0.1573,-0.1577,-0.1579,-0.1581,-0.1582,-0.188,-0.1812,-0.177,-0.1755,-0.1795,-0.1814,-0.1811,-0.188,-0.1899,-0.1882,-0.1941,-0.1845,-0.1828,-0.1626,-0.1538,-0.1478,-0.1602,-0.1539,-0.1551,-0.1567,-0.1548,-0.155,-0.1366,-0.1368,-0.137,-0.1372,-0.1373,0,-0.1839,-0.1725,-0.1706,-0.1641,-0.1615,-0.1685,-0.1717,-0.1685,-0.1644,-0.1652,-0.1614,-0.1441,-0.1342,-0.1338,-0.1187,-0.1163,-0.1158,-0.1124,-0.1116,-0.115,-0.1179,-0.1142,-0.0852,-0.0851,-0.0849,-0.0848,0,0,-0.1778,-0.1634,-0.1547,-0.1456,-0.1452,-0.1383,-0.1367,-0.1332,-0.1322,-0.1241,-0.1192,-0.1255,-0.1293,-0.107,-0.102,-0.0909,-0.1021,-0.0866,-0.1283,-0.1307,-0.1335,-0.1416,-0.1396,0,0,0,0,0]},{"header":{"parameterUnit":"m.s-1","parameterCategory":2,"la1":30.2991,"la2":30.254,"lo1":-89.0895,"lo2":-89.0444,"dy":0.0017,"dx":0.0017,"nx":28,"ny":28,"refTime":"2023-09-21T09:00:00:Z","depth":"2","parameterNumber":3,"parameterNumberName":"V-component_of_CURRENTS"},"data":[0,0,0,0,0,0,0,0,0,0,0,0,0,0,0,0,0,0,0,0,0,0,0,0,0,0,0,0,0,0,0,0,0,0,0,0,0,0,0,0,0,0,0,0,0,0,0,0,0,0,0,0,0,0,0,0,0,0,-0.0284,-0.0284,0,-0.0219,-0.0218,-0.0217,-0.0158,-0.0158,-0.0157,-0.0157,-0.0026,-0.0023,-0.002,0,0,0,0,0,0,0,0,0,0,0,0,0,-0.0284,-0.0285,-0.0284,-0.0284,-0.0283,-0.0219,-0.0218,-0.0217,-0.0158,-0.0158,-0.0157,-0.0157,-0.0027,-0.0023,-0.002,0,0,0,0,0,0,0,0,0,0,0,0,0,-0.0256,-0.0285,-0.0284,-0.0248,-0.0245,-0.0219,-0.0218,-0.0216,-0.0158,-0.0158,-0.0157,-0.0157,-0.0028,-0.0024,-0.0019,-0.0004,0,0,-0.0005,-0.0003,0,0,0,0,0,0,0,0,-0.0257,-0.0255,-0.0254,-0.0251,-0.0247,-0.0199,-0.017,-0.0143,-0.0159,-0.0188,-0.0157,-0.0156,-0.008,-0.0071,-0.0057,0.0003,0.0008,-0.0005,-0.0002,0.0,0.0001,0,0,0,0,0,0,0,-0.026,-0.0257,-0.0255,-0.0254,-0.0249,-0.021,-0.0206,-0.0164,-0.0135,-0.0185,-0.0182,-0.0179,-0.0077,-0.0062,-0.0053,0.001,-0.0005,-0.0001,0.0002,0.0004,0.0114,0.0114,0,0,0,0,0,0,-0.0278,-0.026,-0.0257,-0.0254,-0.0254,-0.0212,-0.0206,-0.0212,-0.0137,-0.0126,-0.018,-0.0177,-0.007,-0.0059,-0.0049,-0.001,0.0,0.0004,0.0007,0.0114,0.0114,0.0114,0,0,0,0,0,0,-0.0279,-0.0279,-0.026,-0.0257,-0.0252,-0.0213,-0.022,-0.0211,-0.0195,-0.0134,-0.0121,-0.0172,-0.0069,-0.0055,-0.0006,-0.0005,0.0007,0.0011,0.0114,0.0114,0.0114,0.0057,0,0,0,0,0,0,-0.0279,-0.028,-0.0289,-0.0259,-0.0253,-0.0252,-0.022,-0.0211,-0.0196,-0.0191,-0.0123,-0.011,-0.0067,-0.0013,-0.0002,0.0002,0.0014,0.0113,0.0114,0.0114,0.0059,0.0056,0.0053,0,0,0,0,0,-0.0279,-0.0302,-0.029,-0.029,-0.0268,-0.0253,-0.0246,-0.0213,-0.0197,-0.0195,-0.0142,-0.0112,-0.0003,-0.0009,0.0004,0.0009,0.0113,0.0114,0.0114,0.006,0.0056,0.0053,0,0,0,0,0,0,-0.0313,-0.0298,-0.0284,-0.0303,-0.0281,-0.0244,-0.0244,-0.022,-0.0177,-0.017,-0.0108,-0.0091,-0.0049,-0.0013,-0.0021,0.0041,0.0059,0.0062,0.0013,0.001,0.0007,-0.0007,0.0018,0,0,0,0,0,-0.0325,-0.0337,-0.031,-0.0326,-0.0318,-0.028,-0.027,-0.0248,-0.0209,-0.0191,-0.014,-0.0086,-0.0038,-0.0009,0.0035,0.0071,0.0107,0.0082,0.0079,0.0076,0.0074,0.013,0.0132,0.0115,0.0115,0.0115,0,0,-0.0344,-0.0338,-0.0344,-0.0333,-0.0314,-0.0305,-0.0272,-0.0264,-0.0248,-0.0182,-0.0144,-0.0097,-0.0032,0.0009,0.003,0.0041,0.0098,0.0076,0.0073,0.0074,0.0131,0.0132,0.0134,0.0115,0.0115,0.0115,0,0,-0.0387,-0.038,-0.0399,-0.0381,-0.036,-0.0333,-0.0334,-0.0294,-0.0268,-0.0231,-0.0177,-0.0128,-0.0059,-0.0008,0.0025,0.0031,0.0076,0.0042,0.0021,0.0074,0.0076,0.0078,0.0116,0.0122,0.0044,0.0044,0.0044,0,-0.0409,-0.0426,-0.0401,-0.0406,-0.0394,-0.0349,-0.0353,-0.0321,-0.0268,-0.0244,-0.0227,-0.0117,-0.0065,-0.0004,-0.0001,0.0024,0.0056,0.0028,0.0069,0.0072,0.0075,0.0114,0.0122,0.0041,0.0041,0.0042,0.0042,0,-0.0452,-0.0461,-0.0471,-0.0458,-0.0441,-0.0441,-0.0393,-0.0369,-0.0332,-0.0292,-0.0231,-0.0157,-0.0091,-0.0068,-0.003,0.0018,0.0033,0.0054,0.0075,0.0073,0.0115,0.0123,0.0037,0.0038,0.0039,0.004,0,0,-0.051,-0.0504,-0.0506,-0.0506,-0.0467,-0.0461,-0.0433,-0.0393,-0.0373,-0.0311,-0.0273,-0.019,-0.0149,-0.0108,-0.0052,-0.0002,0.0045,0.0029,0.0034,0.006,0.0154,0.0187,0.0199,0.0073,0.0074,0.0075,0.0171,0,-0.0548,-0.0577,-0.0554,-0.0565,-0.057,-0.0515,-0.0492,-0.0446,-0.0396,-0.0346,-0.0261,-0.0207,-0.0163,-0.0132,-0.0075,0.0021,0.0066,0.0017,0.0158,0.0162,0.0187,0.021,0.0183,0.0268,0.0179,0.0181,0.0182,0,-0.0594,-0.0603,-0.0633,-0.0616,-0.0611,-0.0607,-0.0561,-0.0534,-0.045,-0.0408,-0.0336,-0.0267,-0.0175,-0.0144,0.001,-0.0025,0.0054,0.0123,0.0129,0.0187,0.0212,0.0259,0.0287,0.0197,0.0196,0.0194,0.0193,0,-0.0657,-0.0658,-0.0686,-0.068,-0.0651,-0.0649,-0.0627,-0.0559,-0.0535,-0.0448,-0.0418,-0.0299,-0.0232,-0.0119,0.0027,0.0019,0.0194,0.0203,0.0305,0.0307,0.0326,0.0329,0.0301,0.0301,0.0301,0.03,0.03,0,-0.0707,-0.0724,-0.072,-0.0741,-0.0751,-0.0708,-0.0709,-0.0665,-0.0601,-0.0562,-0.046,-0.0394,-0.0222,-0.0097,0.002,0.0196,0.0192,0.0308,0.0341,0.0305,0.0304,0.0277,0.0273,0.0304,0.0303,0.0302,0.0302,0,-0.0766,-0.0765,-0.08,-0.0797,-0.0793,-0.0801,-0.0773,-0.0765,-0.0699,-0.0644,-0.0618,-0.0456,-0.0282,-0.0116,0.0091,0.0194,0.035,0.0407,0.0347,0.0372,0.0423,0.0415,0.0529,0.0531,0.0533,0.0534,0.0535,0,-0.0806,-0.0853,-0.0868,-0.0881,-0.0881,-0.0883,-0.0882,-0.0824,-0.0805,-0.067,-0.0643,-0.0465,-0.0313,-0.0007,0.0202,0.0416,0.0408,0.0505,0.049,0.043,0.045,0.0439,0.0429,0.0488,0.0488,0.0489,0.0489,0,-0.0905,-0.092,-0.0924,-0.0961,-0.0974,-0.0977,-0.0969,-0.0962,-0.0871,-0.0795,-0.0645,-0.051,-0.021,0.0052,0.0319,0.0432,0.0469,0.0526,0.0498,0.0432,0.0399,0.0416,0.0406,0.0495,0.0494,0.0494,0.0494,0.0494,-0.0972,-0.099,-0.1015,-0.1025,-0.1042,-0.1052,-0.1047,-0.0997,-0.0934,-0.0771,-0.0647,-0.0401,-0.0176,0.0235,0.0408,0.0561,0.0554,0.059,0.0585,0.058,0.0557,0.0528,0.0644,0.0644,0.0644,0.0644,0.0644,0,-0.104,-0.1056,-0.1087,-0.109,-0.1112,-0.1103,-0.1085,-0.1036,-0.093,-0.0739,-0.0555,-0.0263,0.002,0.0243,0.0501,0.0647,0.0614,0.0656,0.0588,0.0582,0.0576,0.055,0.0637,0.0637,0.0637,0.0638,0,0,-0.1068,-0.1101,-0.1095,-0.1138,-0.1152,-0.1152,-0.1131,-0.1018,-0.0873,-0.0641,-0.0435,-0.0201,0.006,0.0245,0.0412,0.054,0.0518,0.054,0.0529,0.0421,0.0414,0.0521,0.0472,0,0,0,0,0]}],[{"header":{"parameterUnit":"m.s-1","parameterCategory":2,"la1":30.2991,"la2":30.254,"lo1":-89.0895,"lo2":-89.0444,"dy":0.0017,"dx":0.0017,"nx":28,"ny":28,"refTime":"2023-09-21T09:00:00:Z","depth":"4","parameterNumber":2,"parameterNumberName":"U-component_of_CURRENTS"},"data":[0,0,0,0,0,0,0,0,0,0,0,0,0,0,0,0,0,0,0,0,0,0,0,0,0,0,0,0,0,0,0,0,0,0,0,0,0,0,0,0,0,0,0,0,0,0,0,0,0,0,0,0,0,0,0,0,0,0,-0.1148,-0.1149,0,-0.1216,-0.1216,-0.1217,-0.1265,-0.1265,-0.1266,-0.1266,-0.1321,-0.1321,-0.1322,0,0,0,0,0,0,0,0,0,0,0,0,0,-0.1045,-0.1046,-0.1148,-0.1149,-0.115,-0.1215,-0.1216,-0.1217,-0.1264,-0.1265,-0.1266,-0.1267,-0.132,-0.1321,-0.1322,0,0,0,0,0,0,0,0,0,0,0,0,0,-0.1096,-0.1047,-0.1148,-0.1183,-0.1187,-0.1215,-0.1216,-0.1217,-0.1264,-0.1265,-0.1266,-0.1267,-0.132,-0.1321,-0.1323,-0.1312,0,0,-0.1327,-0.1327,0,0,0,0,0,0,0,0,-0.1093,-0.11,-0.1177,-0.1181,-0.1186,-0.1235,-0.12,-0.1249,-0.1264,-0.1232,-0.1266,-0.1267,-0.1292,-0.1295,-0.1303,-0.1315,-0.1317,-0.1327,-0.1328,-0.1328,-0.1328,0,0,0,0,0,0,0,-0.109,-0.1097,-0.1172,-0.1178,-0.1183,-0.1191,-0.1199,-0.1209,-0.1254,-0.1235,-0.124,-0.1251,-0.1294,-0.1301,-0.1304,-0.1318,-0.1327,-0.1328,-0.1329,-0.1329,-0.1419,-0.1421,0,0,0,0,0,0,-0.1086,-0.1094,-0.117,-0.1174,-0.1144,-0.1193,-0.1202,-0.1216,-0.1254,-0.1262,-0.125,-0.1253,-0.1299,-0.1303,-0.1306,-0.1367,-0.1328,-0.1329,-0.133,-0.1417,-0.1419,-0.1421,0,0,0,0,0,0,-0.1084,-0.1093,-0.1167,-0.1137,-0.1148,-0.1194,-0.1209,-0.1217,-0.1248,-0.1266,-0.1273,-0.1276,-0.1299,-0.1305,-0.1343,-0.1367,-0.133,-0.1331,-0.1416,-0.1418,-0.142,-0.1444,0,0,0,0,0,0,-0.1081,-0.1091,-0.1099,-0.1137,-0.1149,-0.1195,-0.1209,-0.1218,-0.1253,-0.1258,-0.129,-0.1295,-0.1301,-0.1341,-0.1344,-0.1368,-0.1332,-0.1414,-0.1417,-0.142,-0.1441,-0.1447,-0.1452,0,0,0,0,0,-0.1077,-0.1083,-0.1098,-0.1108,-0.1159,-0.1196,-0.1203,-0.1236,-0.1254,-0.1267,-0.1299,-0.1295,-0.1363,-0.1343,-0.1347,-0.1372,-0.1412,-0.1416,-0.1419,-0.1439,-0.1446,-0.1452,0,0,0,0,0,0,-0.1042,-0.109,-0.1108,-0.1129,-0.1166,-0.1205,-0.1219,-0.1246,-0.1281,-0.1293,-0.1309,-0.1316,-0.136,-0.1365,-0.1343,-0.1409,-0.1389,-0.1393,-0.1403,-0.1409,-0.1415,-0.1426,-0.1333,0,0,0,0,0,-0.1038,-0.1054,-0.1104,-0.112,-0.114,-0.1183,-0.1203,-0.1234,-0.127,-0.1287,-0.1314,-0.1345,-0.1373,-0.1391,-0.1412,-0.1443,-0.1447,-0.1465,-0.147,-0.1474,-0.1488,-0.153,-0.154,-0.1433,-0.1433,-0.1433,0,0,-0.1024,-0.1056,-0.1063,-0.1113,-0.1143,-0.1182,-0.1197,-0.1238,-0.1278,-0.1286,-0.1343,-0.1362,-0.1386,-0.1425,-0.1446,-0.1435,-0.1501,-0.1479,-0.1482,-0.1494,-0.1535,-0.1545,-0.1555,-0.1435,-0.1435,-0.1435,0,0,-0.1013,-0.104,-0.1056,-0.1097,-0.1154,-0.1183,-0.1202,-0.126,-0.1292,-0.1344,-0.1365,-0.1403,-0.1444,-0.1469,-0.1485,-0.1532,-0.1526,-0.1543,-0.1579,-0.1619,-0.1628,-0.1636,-0.1623,-0.163,-0.1547,-0.1547,-0.1547,0,-0.0998,-0.1031,-0.1065,-0.1107,-0.1146,-0.1189,-0.1232,-0.1267,-0.1333,-0.1367,-0.1369,-0.1456,-0.1466,-0.1524,-0.1543,-0.1543,-0.1553,-0.1547,-0.1625,-0.1633,-0.1641,-0.1626,-0.1633,-0.1548,-0.1548,-0.1548,-0.1548,0,-0.0999,-0.1047,-0.1062,-0.1129,-0.1174,-0.1214,-0.128,-0.1323,-0.1366,-0.1408,-0.1481,-0.1505,-0.1559,-0.1567,-0.1569,-0.1636,-0.1617,-0.1623,-0.1604,-0.1653,-0.1634,-0.1641,-0.155,-0.155,-0.1549,-0.1549,0,0,-0.0919,-0.1039,-0.1046,-0.1104,-0.1196,-0.1236,-0.1303,-0.1376,-0.1433,-0.1486,-0.1557,-0.1602,-0.1626,-0.1646,-0.1658,-0.1692,-0.1733,-0.1687,-0.1688,-0.1664,-0.1794,-0.165,-0.1643,-0.176,-0.1763,-0.1764,-0.1746,0,-0.0912,-0.0989,-0.1057,-0.1147,-0.1198,-0.1282,-0.135,-0.1429,-0.1485,-0.1559,-0.16,-0.1665,-0.1653,-0.1686,-0.1721,-0.1743,-0.1759,-0.1736,-0.1759,-0.1759,-0.1619,-0.165,-0.1772,-0.1751,-0.1752,-0.1753,-0.1754,0,-0.0883,-0.0952,-0.1033,-0.1187,-0.1219,-0.1286,-0.1406,-0.147,-0.1576,-0.1629,-0.1696,-0.1732,-0.1794,-0.1775,-0.1831,-0.1822,-0.1813,-0.1815,-0.1815,-0.1682,-0.1629,-0.1702,-0.1767,-0.1766,-0.1765,-0.1764,-0.1763,0,-0.0799,-0.0937,-0.1003,-0.1053,-0.1221,-0.1289,-0.1369,-0.1489,-0.1559,-0.1667,-0.1731,-0.1804,-0.1849,-0.1873,-0.1865,-0.1867,-0.1905,-0.1903,-0.1756,-0.1744,-0.1868,-0.186,-0.1938,-0.1938,-0.1938,-0.1938,-0.1938,0,-0.0755,-0.0815,-0.098,-0.1025,-0.114,-0.1261,-0.1378,-0.1468,-0.1594,-0.1676,-0.176,-0.1817,-0.1885,-0.1909,-0.1891,-0.1829,-0.1922,-0.1763,-0.174,-0.1872,-0.1866,-0.187,-0.1862,-0.1937,-0.1938,-0.1938,-0.1938,0,-0.065,-0.0751,-0.0858,-0.1044,-0.111,-0.1188,-0.1389,-0.1463,-0.1588,-0.1693,-0.1732,-0.1845,-0.1863,-0.1883,-0.1906,-0.1843,-0.1807,-0.1756,-0.1863,-0.1847,-0.1609,-0.1603,-0.1601,-0.1596,-0.1591,-0.1588,-0.1585,0,-0.0601,-0.0632,-0.0846,-0.0937,-0.1034,-0.1174,-0.1275,-0.1437,-0.1516,-0.1687,-0.1725,-0.1791,-0.1839,-0.174,-0.1776,-0.1712,-0.169,-0.1658,-0.1664,-0.1602,-0.1581,-0.1581,-0.1581,-0.1578,-0.1577,-0.1576,-0.1575,0,-0.0487,-0.0562,-0.0669,-0.087,-0.1006,-0.1139,-0.129,-0.1342,-0.1511,-0.163,-0.1665,-0.1661,-0.167,-0.1649,-0.16,-0.1563,-0.1681,-0.1614,-0.1623,-0.1628,-0.1574,-0.1558,-0.1563,-0.156,-0.1562,-0.1564,-0.1564,0,-0.0412,-0.0444,-0.0597,-0.0799,-0.0966,-0.1081,-0.1174,-0.1277,-0.1365,-0.1543,-0.1536,-0.159,-0.1655,-0.1569,-0.1531,-0.1473,-0.1454,-0.1414,-0.1434,-0.145,-0.1408,-0.1317,-0.1206,0,0,0,0,0,-0.0303,-0.034,-0.0512,-0.0735,-0.0922,-0.1014,-0.1183,-0.127,-0.1419,-0.1399,-0.1467,-0.1455,-0.1408,-0.1429,-0.1333,-0.1461,-0.1462,-0.1345,-0.1428,-0.1479,-0.1496,-0.1458,0,0,0,0,0,0,-0.0241,-0.0314,-0.0453,-0.0663,-0.08,-0.0963,-0.106,-0.1165,-0.117,-0.1302,-0.1272,-0.1353,-0.1314,-0.1418,-0.1293,-0.1297,-0.1318,-0.1371,-0.1366,-0.1469,-0.1484,-0.1498,-0.1466,0,0,0,0,0]},{"header":{"parameterUnit":"m.s-1","parameterCategory":2,"la1":30.2991,"la2":30.254,"lo1":-89.0895,"lo2":-89.0444,"dy":0.0017,"dx":0.0017,"nx":28,"ny":28,"refTime":"2023-09-21T09:00:00:Z","depth":"4","parameterNumber":3,"parameterNumberName":"V-component_of_CURRENTS"},"data":[0,0,0,0,0,0,0,0,0,0,0,0,0,0,0,0,0,0,0,0,0,0,0,0,0,0,0,0,0,0,0,0,0,0,0,0,0,0,0,0,0,0,0,0,0,0,0,0,0,0,0,0,0,0,0,0,0,0,-0.0162,-0.0162,0,-0.0148,-0.0148,-0.0148,-0.0114,-0.0113,-0.0113,-0.0112,-0.004,-0.0038,-0.0037,0,0,0,0,0,0,0,0,0,0,0,0,0,-0.0121,-0.0122,-0.0162,-0.0162,-0.0162,-0.0149,-0.0148,-0.0148,-0.0114,-0.0113,-0.0113,-0.0112,-0.004,-0.0039,-0.0037,0,0,0,0,0,0,0,0,0,0,0,0,0,-0.0124,-0.0122,-0.0162,-0.0146,-0.0144,-0.0149,-0.0148,-0.0148,-0.0114,-0.0113,-0.0113,-0.0112,-0.0041,-0.0039,-0.0037,-0.0039,0,0,-0.003,-0.0029,0,0,0,0,0,0,0,0,-0.0124,-0.0126,-0.0148,-0.0147,-0.0145,-0.0134,-0.0107,-0.0109,-0.0114,-0.0123,-0.0112,-0.0112,-0.0068,-0.0064,-0.006,-0.0035,-0.0032,-0.003,-0.0028,-0.0028,-0.0027,0,0,0,0,0,0,0,-0.0124,-0.0126,-0.0155,-0.0148,-0.0146,-0.0126,-0.0125,-0.0107,-0.0097,-0.0122,-0.012,-0.0123,-0.0066,-0.0063,-0.0058,-0.0031,-0.003,-0.0028,-0.0027,-0.0026,0.0015,0.0014,0,0,0,0,0,0,-0.0133,-0.0126,-0.0155,-0.0154,-0.0135,-0.0127,-0.0127,-0.0137,-0.0099,-0.0093,-0.0123,-0.0121,-0.0067,-0.0061,-0.0055,-0.0042,-0.0028,-0.0026,-0.0024,0.0015,0.0015,0.0014,0,0,0,0,0,0,-0.0133,-0.0137,-0.0156,-0.0141,-0.0142,-0.0129,-0.014,-0.0137,-0.0131,-0.01,-0.0093,-0.0121,-0.0066,-0.0059,-0.0038,-0.0039,-0.0025,-0.0023,0.0015,0.0015,0.0014,-0.0023,0,0,0,0,0,0,-0.0132,-0.0137,-0.0146,-0.0142,-0.0144,-0.0167,-0.0141,-0.0137,-0.0135,-0.0131,-0.0096,-0.0089,-0.0065,-0.0041,-0.0035,-0.0036,-0.0021,0.0015,0.0015,0.0015,-0.0022,-0.0025,-0.0028,0,0,0,0,0,-0.013,-0.0155,-0.0147,-0.015,-0.0158,-0.0169,-0.0168,-0.0153,-0.0135,-0.0142,-0.011,-0.009,-0.004,-0.004,-0.0033,-0.0033,0.0016,0.0015,0.0015,-0.0021,-0.0024,-0.0028,0,0,0,0,0,0,-0.0141,-0.0154,-0.0145,-0.0171,-0.0171,-0.0164,-0.0172,-0.0157,-0.0139,-0.0131,-0.0093,-0.0084,-0.0067,-0.0047,-0.0047,-0.0023,-0.0009,-0.0008,-0.0038,-0.0041,-0.0044,-0.0043,-0.0019,0,0,0,0,0,-0.0149,-0.0171,-0.0172,-0.0191,-0.0195,-0.0181,-0.0182,-0.0173,-0.0157,-0.0148,-0.0122,-0.0091,-0.0066,-0.0051,-0.0031,-0.0017,0.0018,-0.0013,-0.0016,-0.0019,-0.0013,0.0049,0.0052,0.0013,0.0013,0.0013,0,0,-0.0154,-0.0168,-0.0176,-0.0195,-0.0192,-0.0203,-0.018,-0.0189,-0.0186,-0.0143,-0.0131,-0.0103,-0.0066,-0.0051,-0.0041,-0.0032,0.0007,-0.0019,-0.0022,-0.0015,0.0049,0.0053,0.0057,0.0012,0.0012,0.0012,0,0,-0.0188,-0.0192,-0.0223,-0.0226,-0.0234,-0.0225,-0.0228,-0.0221,-0.0208,-0.0199,-0.016,-0.0129,-0.0104,-0.0068,-0.0047,-0.0053,-0.0013,-0.0054,-0.0063,-0.0003,0.0001,0.0005,0.0038,0.0045,-0.0052,-0.0052,-0.0052,0,-0.0194,-0.023,-0.0231,-0.0258,-0.0257,-0.0236,-0.0252,-0.0241,-0.0224,-0.0206,-0.0202,-0.0136,-0.0108,-0.0063,-0.0068,-0.0058,-0.0028,-0.0053,-0.0006,-0.0001,0.0004,0.0037,0.0046,-0.0054,-0.0054,-0.0054,-0.0053,0,-0.0244,-0.0269,-0.0287,-0.0308,-0.0307,-0.0321,-0.0303,-0.0297,-0.0275,-0.0252,-0.0213,-0.0169,-0.0125,-0.0115,-0.0095,-0.0046,-0.0039,-0.0019,0.0004,0.0006,0.004,0.005,-0.0057,-0.0056,-0.0055,-0.0055,0,0,-0.0263,-0.0315,-0.0319,-0.0334,-0.0332,-0.0339,-0.0331,-0.0313,-0.03,-0.0271,-0.0239,-0.0192,-0.0157,-0.0131,-0.0093,-0.0043,0.0009,-0.0022,-0.0018,0.0011,0.0124,0.0106,0.0116,0.0039,0.0041,0.0043,0.0126,0,-0.0298,-0.0361,-0.0368,-0.0399,-0.0417,-0.0391,-0.0384,-0.0358,-0.0328,-0.0295,-0.0229,-0.0192,-0.0166,-0.0143,-0.0087,-0.0012,0.0036,-0.0017,0.0117,0.012,0.0107,0.0127,0.0049,0.0134,0.0136,0.0138,0.0139,0,-0.0339,-0.0372,-0.0422,-0.0439,-0.0443,-0.0454,-0.0424,-0.0419,-0.036,-0.0332,-0.0272,-0.022,-0.014,-0.0122,0.0016,-0.002,0.0046,0.0103,0.0108,0.0116,0.0123,0.0137,0.0157,0.0156,0.0155,0.0153,0.0152,0,-0.0355,-0.0403,-0.0445,-0.0452,-0.0469,-0.0476,-0.0472,-0.0429,-0.0417,-0.0351,-0.0325,-0.0223,-0.017,-0.0066,0.0044,0.0035,0.0192,0.0199,0.0247,0.0245,0.0252,0.0247,0.0301,0.03,0.03,0.03,0.03,0,-0.039,-0.0419,-0.0461,-0.0488,-0.0513,-0.0504,-0.0514,-0.0495,-0.0453,-0.0429,-0.0348,-0.0293,-0.0151,-0.0047,0.0048,0.0175,0.0201,0.0252,0.0275,0.0229,0.0221,0.0258,0.0252,0.0303,0.0302,0.0302,0.0301,0,-0.0409,-0.0445,-0.0492,-0.0525,-0.0536,-0.0551,-0.0561,-0.056,-0.0517,-0.048,-0.0459,-0.0334,-0.0197,-0.0063,0.0112,0.0176,0.0301,0.0338,0.0266,0.0281,0.0309,0.0299,0.04,0.04,0.0401,0.0401,0.0401,0,-0.0421,-0.0455,-0.0525,-0.0556,-0.0581,-0.0602,-0.0618,-0.0596,-0.0587,-0.0498,-0.0477,-0.034,-0.0246,-0.0008,0.0124,0.0303,0.0325,0.0375,0.0356,0.0311,0.0324,0.0314,0.0305,0.0401,0.0401,0.0402,0.0402,0,-0.0421,-0.0462,-0.0513,-0.0594,-0.0633,-0.0664,-0.0681,-0.0674,-0.0632,-0.0594,-0.0466,-0.033,-0.0177,0.0001,0.0137,0.0265,0.0337,0.0378,0.0379,0.036,0.0314,0.0324,0.0315,0.0402,0.0402,0.0402,0.0402,0,-0.0409,-0.0449,-0.0537,-0.0611,-0.0672,-0.0709,-0.0712,-0.068,-0.0658,-0.0552,-0.0504,-0.0325,-0.0211,-0.0018,0.0112,0.0231,0.0257,0.0283,0.0289,0.0289,0.0227,0.015,0.0217,0,0,0,0,0,-0.0365,-0.0437,-0.0534,-0.0627,-0.0706,-0.074,-0.0748,-0.0737,-0.0688,-0.0602,-0.0548,-0.0396,-0.0171,-0.0063,0.0055,0.0089,0.025,0.0227,0.0277,0.0407,0.0406,0.035,0,0,0,0,0,0,-0.0349,-0.0426,-0.053,-0.0639,-0.0709,-0.0776,-0.0784,-0.0751,-0.0688,-0.0613,-0.0484,-0.0392,-0.0173,-0.0243,0.0048,0.0086,0.0129,0.0341,0.0343,0.0408,0.0407,0.0406,0.0348,0,0,0,0,0]}]]